Skip Page Navigation
NASA JPL Caltech
NASA Logo - Jet Propulsion Laboratory + View the NASA Portal
+ Center for Near-Earth Object Studies
JPL Home Earth Solar System Stars & Galaxies Technology
JPL Solar System Dynamics
BODIES ORBITS EPHEMERIDES TOOLS PHYSICAL DATA DISCOVERY FAQ SITE MAP
IMPORTANT: The SSD Announcement email list is now available. Major changes are coming in the near future, including possible hostname and/or URL changes. To be notified of such changes, subscribe to this email list.

Please visit this page for more details.


JPL Small-Body Database Browser
Search: [ help ]  
15805 Murakamitakehiko (1994 GB1)
Classification: Main-belt Asteroid          SPK-ID: 2015805
Ephemeris | Orbit Diagram | Orbital Elements | Mission Design | Physical Parameters | Discovery Circumstances ]

[ show orbit diagram ]
Orbital Elements at Epoch 2459000.5 (2020-May-31.0) TDB
Reference: JPL 35 (heliocentric ecliptic J2000)
 Element Value Uncertainty (1-sigma)   Units 
e .1967725138863483 2.9475e-08  
a 2.271483931131772 6.5631e-09 au
q 1.824518327750528 6.6639e-08 au
i 5.509129891916691 4.153e-06 deg
node 40.14723107029526 3.2936e-05 deg
peri 238.8004743889272 3.45e-05 deg
M 174.7522529375753 1.0978e-05 deg
tp 2458393.507656641329
(2018-Oct-02.00765664)
3.7503e-05 TDB
period 1250.44020855731
3.42
5.4194e-06
1.484e-08
d
yr
n .2878986116540098 1.2478e-09 deg/d
Q 2.718449534513015 7.8545e-09 au
  Orbit Determination Parameters
   # obs. used (total)      2277  
   data-arc span      10403 days (28.48 yr)  
   first obs. used      1991-08-06  
   last obs. used      2020-01-29  
   planetary ephem.      DE431  
   SB-pert. ephem.      SB431-N16  
   condition code      0  
   norm. resid. RMS      .45595  
   source      ORB  
   producer      Otto Matic  
   solution date      2020-Feb-22 21:28:37  

Additional Information
 Earth MOID = .815668 au 
 Jupiter MOID = 2.42549 au 
 T_jup = 3.580 
[ show covariance matrix ]

Ephemeris | Orbit Diagram | Orbital Elements | Mission Design | Physical Parameters | Discovery Circumstances ]

Physical Parameter Table
Parameter Symbol Value Units Sigma Reference Notes
absolute magnitude H 13.6   n/a MPO302163  
diameter diameter 4.951 km 0.274 urn:nasa:pds:neowise_diameters_albedos::2.0[mainbelt] (http://adsabs.harvard.edu/abs/2011ApJ...741...68M)  
geometric albedo albedo 0.315   0.081 urn:nasa:pds:neowise_diameters_albedos::2.0[mainbelt] (http://adsabs.harvard.edu/abs/2011ApJ...741...68M)  

15805 Murakamitakehiko           Discovered 1994 Apr. 8 by K. Endate and K. Watanabe at Kitami.
Takehiko Murakami (b. 1956) is a well-known amateur astronomer in Kanagawa Prefecture. He supports the organization of star parties for local children and citizens. He enjoys observing and photographing nebulae and star clusters.
NOTE: some special characters may not display properly (any characters within {} are an attempt to place the proper accent above a character)
Reference: MPC batch dated 2015-09-28Last Updated: 2015-10-05

Alternate Designations
 1994 GB1 = 1998 MH48 
Ephemeris | Orbit Diagram | Orbital Elements | Mission Design | Physical Parameters | Discovery Circumstances ]
ABOUT SSD CREDITS/AWARDS PRIVACY/COPYRIGHT GLOSSARY LINKS
FirstGov 2020-Mar-30 12:38 UT
(server date/time)  
NASA Home Page
Site Manager:   Ryan S. Park
Webmaster  Alan B. Chamberlin